Regional Weather Roundup
Issued by NWS Midland/Odessa, TX

Home | Current Version | Previous Version | Text Only | Print | Product List | Glossary On
Versions: 1 2 3 4 5 6 7 8 9 10 11 12 13 14 15 16 17 18 19 20 21 22 23 24 25 26 27 28 29 30 31 32 33 34 35 36 37 38 39 40 41 42 43 44 45 46 47 48 49 50
000
ASUS44 KMAF 301510
RWRMAF
MIDLAND AREA WEATHER ROUNDUP
NATIONAL WEATHER SERVICE MIDLAND TX
1000 AM CDT TUE JUN 30 2015

...IN SOUTHWEST TEXAS AND SOUTHEAST NEW MEXICO...

CITY           SKY/WX    TMP DP  RH WIND       PRES   REMARKS
ALPINE         PTSUNNY   70  57  64 NE10      30.27F
ANDREWS        PTSUNNY   71  60  67 W7        30.14S
ARTESIA        SUNNY     73  64  73 S9        30.19S
BIG SPRING     PTSUNNY   74  62  66 E5        30.15R
CARLSBAD       PTSUNNY   73  61  65 S10       30.16S
DRYDEN           N/A     77  63  61 N13G22    30.09S
FORT STOCKTON  PTSUNNY   71  57  61 SE8       30.14R
GUAD PASS      CLOUDY    62  58  86 NE16      30.29S
HOBBS          SUNNY     68  63  83 SE7       30.20R
MARFA          PTSUNNY  N/A N/A N/A NE13      30.24S
MIDLAND AIRPK  CLOUDY    69  63  82 S6        30.12R
MIDLAND INTL   CLOUDY    68  63  84 SW10      30.11R
ODESSA         CLOUDY    67  62  84 SW8       30.12S
PECOS          CLOUDY    70  61  74 SW5       30.13R
PRESIDIO       FAIR      84  63  47 MISG      30.06S
SEMINOLE       PTSUNNY   71  60  68 W8        30.17S
SNYDER         PTSUNNY   69  63  82 S5        30.13S
WINK           PTSUNNY   70  62  76 CALM      30.11S
$$
...OTHER STATIONS IN TEXAS...

CITY           SKY/WX    TMP DP  RH WIND       PRES   REMARKS
ABILENE        MOSUNNY   81  66  60 CALM      30.10R
AMARILLO       SUNNY     74  58  57 S14       30.18S
AUSTIN         CLOUDY    80  76  87 S3        30.07R
BROWNSVILLE    LGT RAIN  75  72  90 S17G28    30.06R FOG
CORPUS CHRISTI PTSUNNY   87  76  69 SE14      30.02R
DALLAS FTW     PTSUNNY   83  68  60 S15       30.03F
DEL RIO        CLOUDY    79  74  84 SE7       30.04S
EL PASO        MOSUNNY   80  56  43 NE6       30.14S
HOUSTON INT    PTSUNNY   87  75  67 W8        30.05S
LUBBOCK        PTSUNNY   71  63  75 W13       30.15R
SAN ANGELO     PTSUNNY   73  65  75 E3        30.11F
SAN ANTONIO    PTSUNNY   83  73  72 S12       30.07R
WACO           CLOUDY    74  70  87 S14       30.06F
WICHITA FALLS  NOT AVBL
$$
...OTHER LOCATIONS IN NEW MEXICO...

CITY           SKY/WX    TMP DP  RH WIND       PRES   REMARKS
ALAMAGORDO     MOSUNNY   81  54  39 S13       30.17R
ALBUQUERQUE    PTSUNNY   76  51  41 N7        30.27S
CANNON AFB     SUNNY     71  59  64 SW6       30.22S
CLOVIS         SUNNY     70  57  64 S8        30.23S
HOLLOMAN AFB   MOSUNNY   83  51  33 N10       30.14S
ROSWELL        SUNNY     74  61  63 SW9       30.19R
RUIDOSO        SUNNY     63  54  72 SE3       30.39R
SANTA FE       MOSUNNY   71  48  43 CALM      30.33F
TRUTH OR CONSE MOSUNNY   77  56  48 N7        30.21R
TUCUMCARI      SUNNY     78  56  46 SW6       30.19S
$$



USA.gov is the U.S. government's official web portal to all federal, state and local government web resources and services.